Wind_Speed
4 4 5 4 4 4 4 4 3 3 3 3 3 3 3 3 4 5 5 5 5 5 6 6 6 5 6 6 7 7 8 8 8 8 8 8 8 8 8 8 8 8 7 7 7 7 6 6 6
5 5 5 4 4 4 4 4 3 3 2 2 2 3 3 3 4 4 5 5 5 5 6 7 7 7 7 7 7 8 8 8 9 9 9 9 8 8 8 8 9 8 8 7 7 7 7 7 6
5 5 4 4 4 4 4 4 3 3 2 2 2 2 3 3 4 4 5 5 5 6 6 7 7 7 8 8 9 9 9 8 9 9 8 8 8 8 8 8 8 8 8 8 8 8 7 7 7
5 5 4 4 4 4 4 3 3 3 3 2 2 3 3 3 4 4 5 5 5 6 6 6 7 7 7 8 9 9 9 9 9 9 8 9 9 8 8 8 8 8 8 8 8 8 8 7 7
5 5 4 4 4 4 4 3 3 4 4 3 3 3 4 4 4 4 4 4 4 5 5 6 7 7 8 8 9 9 9 9 9 9 9 9 10 9 9 9 9 9 8 8 8 9 9 8 8
5 5 5 4 4 4 4 4 4 4 4 3 3 3 3 3 3 4 4 4 4 4 5 6 6 7 8 9 9 9 9 9 9 9 9 9 10 10 10 9 9 9 9 8 9 9 9 9 9
5 5 5 4 3 3 4 4 4 4 4 3 4 4 3 3 3 4 4 4 4 4 5 5 6 7 7 8 9 9 10 10 9 9 9 10 10 10 10 10 10 9 10 10 10 9 9 9 10
5 4 4 3 3 4 4 4 4 4 4 4 4 4 3 3 3 4 3 4 4 5 5 6 6 6 7 7 8 9 9 9 9 9 9 10 10 11 10 10 10 10 10 11 10 10 10 10 10
5 4 4 3 4 4 4 4 4 4 4 4 4 4 4 3 4 4 4 4 5 5 5 5 6 6 6 6 7 8 8 9 9 9 9 9 10 11 11 10 10 10 11 10 10 9 10 10 10
5 4 4 4 4 5 5 4 4 4 4 4 4 3 3 3 4 4 4 5 5 5 5 5 6 6 6 6 6 6 7 8 8 9 9 9 10 11 11 11 11 11 11 11 10 9 10 10 10
5 4 4 4 4 5 5 5 5 5 4 4 3 3 3 3 4 4 4 4 5 5 4 4 5 5 5 5 5 6 7 7 7 8 8 8 9 10 10 10 11 11 11 11 10 10 10 10 10
5 5 4 5 5 5 5 5 5 4 4 4 3 3 3 3 3 4 4 5 5 5 4 4 5 5 5 4 5 5 6 6 6 7 7 8 8 8 9 10 11 11 11 10 10 10 10 10 10
5 5 5 5 5 5 5 5 4 4 4 3 3 3 3 3 4 4 4 4 5 5 4 4 4 4 4 4 4 5 5 6 6 7 7 8 8 8 8 9 10 11 10 10 10 10 10 9 9
6 6 6 6 5 5 5 4 4 3 3 3 3 3 3 3 4 4 4 4 4 4 4 4 4 4 4 4 4 4 5 5 6 6 6 7 8 8 8 8 9 9 10 10 10 10 10 10 10
6 6 6 6 5 5 5 4 4 3 3 3 3 3 3 3 4 4 4 4 4 4 4 4 4 4 4 3 3 4 4 5 5 5 6 6 7 7 7 8 8 8 9 9 10 9 9 9 9
6 6 6 6 6 5 5 4 4 4 3 3 3 3 3 4 4 4 4 4 4 5 5 4 4 4 4 4 4 4 3 4 4 5 5 5 5 5 6 6 7 7 8 8 9 9 8 9 9
6 6 6 6 6 5 5 5 5 4 4 3 4 4 4 4 4 5 5 5 5 5 5 5 4 4 4 5 5 4 3 3 4 4 5 5 5 5 5 6 6 6 7 7 8 8 9 9 9
6 6 6 6 6 5 5 5 5 5 5 5 5 5 5 6 6 5 6 6 6 6 6 5 5 5 5 5 5 5 4 4 4 5 5 6 5 5 6 6 6 6 7 8 8 8 9 9 9
6 6 6 6 6 6 6 6 6 5 5 5 6 6 6 6 7 6 7 7 7 7 7 6 6 6 6 6 5 5 5 5 5 5 5 6 6 6 6 6 6 6 7 7 8 8 9 9 9
6 6 6 6 6 6 6 6 6 6 6 6 7 6 7 7 7 8 8 8 8 8 8 7 7 7 7 7 7 6 6 6 5 6 7 6 7 7 7 7 6 7 7 8 8 8 9 10 10
6 6 7 7 7 7 7 7 7 7 7 7 8 8 8 8 8 8 9 9 9 9 8 8 8 8 8 8 8 8 8 7 7 7 7 8 8 8 8 8 8 8 8 8 8 8 9 9 10
6 7 7 7 7 7 7 6 7 7 8 8 8 8 8 8 8 9 9 9 9 9 9 8 8 8 8 8 8 8 8 8 8 8 8 8 9 10 10 10 9 9 9 9 9 9 9 9 10
7 8 7 7 7 7 7 7 7 8 8 8 8 8 8 8 9 9 9 9 9 9 9 9 9 9 9 8 8 8 8 8 9 9 9 9 9 10 11 10 10 10 11 10 10 10 10 11 11
8 8 8 8 8 7 8 8 8 8 8 8 9 9 9 9 9 9 9 9 10 10 10 10 10 9 9 9 9 9 9 9 10 10 10 10 10 10 10 11 11 11 11 11 11 11 12 12 12
8 8 9 9 9 9 9 9 9 9 9 9 9 9 9 10 10 10 10 10 11 11 11 11 11 10 10 10 10 10 10 10 10 10 11 11 11 11 11 11 12 12 12 11 11 12 12 12 13
9 9 9 10 10 11 10 9 10 11 11 10 10 10 10 10 11 11 11 12 12 12 12 12 12 11 11 11 10 10 11 11 11 12 12 12 12 12 12 12 12 12 12 12 12 13 13 13 13
9 9 10 11 11 10 10 10 10 12 12 11 11 11 11 11 12 12 12 13 13 12 12 12 12 12 11 11 12 12 12 12 12 13 13 14 14 14 14 14 14 14 14 13 13 13 13 14 14
11 11 11 11 11 11 11 11 11 12 13 13 12 12 12 12 12 13 13 13 13 13 13 13 12 12 12 13 13 13 13 13 13 13 14 14 14 15 15 15 15 15 14 14 14 14 14 15 16
13 13 12 13 13 12 12 12 12 12 13 13 13 13 13 13 14 14 14 14 14 14 13 13 13 13 13 14 15 15 15 14 14 15 15 15 15 15 16 16 15 15 15 15 14 15 15 15 16
15 14 14 14 14 14 14 13 12 13 13 14 14 14 14 14 14 14 14 14 14 14 13 13 13 13 14 14 14 15 15 15 15 16 16 16 15 15 15 15 15 15 15 15 15 15 16 16 16
Wind_Direction
356 353 351 349 345 339 329 322 315 312 295 280 269 269 265 258 259 261 262 263 262 254 250 245 246 249 247 242 238 239 239 239 237 236 236 238 239 237 231 228 223 220 218 220 218 219 223 227 229
356 352 348 350 348 338 331 325 318 315 301 285 280 272 266 268 270 268 267 267 266 260 255 251 250 251 249 243 242 241 242 240 237 235 235 236 236 230 230 227 223 222 221 220 219 223 227 230 231
2 358 356 356 349 339 334 330 324 328 325 305 296 281 279 285 280 273 272 270 265 260 258 257 255 254 252 248 247 245 245 242 237 238 237 234 232 229 228 225 224 223 222 222 222 224 225 227 229
0 359 360 357 352 345 340 338 333 336 336 317 300 294 292 290 286 281 278 273 267 260 258 260 261 257 254 253 250 250 247 243 242 241 238 234 230 225 222 225 224 226 225 226 227 228 227 231 235
358 358 357 351 349 344 346 343 338 336 330 323 311 301 299 298 294 288 285 284 280 268 262 263 264 262 259 256 253 249 247 245 243 242 239 233 229 228 222 223 225 226 223 229 231 229 230 234 237
0 0 355 347 346 343 344 346 346 342 331 326 323 317 311 304 296 294 292 289 286 277 272 273 270 267 263 260 255 250 245 243 242 242 237 236 233 229 224 226 226 228 230 232 232 232 232 239 241
360 357 354 349 347 343 341 344 342 339 331 324 324 321 317 310 308 305 297 292 289 280 279 279 276 271 268 262 256 251 245 243 241 241 237 232 231 232 228 228 228 231 236 236 236 236 238 242 246
358 354 352 355 353 345 345 342 340 334 331 327 325 323 327 323 320 316 305 300 295 285 285 284 279 275 272 265 259 252 246 243 241 240 238 232 231 233 235 232 231 233 236 238 238 238 238 242 245
355 352 351 353 347 343 340 336 335 335 333 331 330 327 327 324 325 322 316 312 307 296 291 290 286 278 273 268 263 254 246 242 240 238 236 235 235 233 235 235 236 237 238 238 238 238 241 243 248
349 343 339 341 339 338 337 337 338 338 335 333 334 331 330 327 329 328 321 319 315 306 295 290 291 286 275 268 264 256 245 241 240 240 240 241 239 238 239 239 238 239 239 238 240 241 242 244 248
345 342 341 340 335 334 336 337 337 338 341 340 342 337 334 334 337 334 332 331 325 316 303 294 297 294 286 274 264 256 247 243 242 242 243 244 244 243 242 244 243 242 243 244 245 244 248 247 248
338 336 336 336 338 339 340 339 339 341 341 344 347 339 339 342 345 342 339 335 331 326 314 306 304 301 296 285 268 261 254 246 239 239 240 244 247 245 243 246 246 244 244 245 246 247 252 254 251
339 332 330 331 333 337 341 341 340 338 338 342 347 352 360 1 360 353 347 343 342 340 331 318 313 308 304 293 276 263 253 244 248 251 246 247 250 247 249 247 246 245 245 246 245 248 253 253 249
333 330 331 331 332 334 337 337 335 340 344 345 348 355 2 360 356 353 354 354 354 354 347 337 329 318 310 298 276 260 257 251 250 251 250 249 249 247 248 246 245 244 244 244 245 249 255 254 254
325 328 329 330 333 335 335 330 331 337 341 348 353 356 354 353 351 348 350 352 355 356 352 344 337 325 313 302 289 270 263 257 250 249 249 249 247 248 245 244 243 243 246 248 248 250 253 255 255
322 325 327 325 326 326 325 323 325 326 325 333 347 348 348 347 349 349 345 344 347 347 345 336 329 323 314 304 298 290 276 261 252 250 250 249 246 243 247 245 241 244 248 250 251 249 251 253 257
314 316 318 321 325 322 319 321 320 319 319 321 326 330 330 332 333 335 335 331 331 334 333 327 321 315 308 300 292 287 278 267 258 259 255 250 246 246 247 246 244 248 248 248 253 252 250 255 256
301 302 306 314 320 321 317 312 313 314 314 316 315 318 318 318 318 320 322 324 322 324 326 322 315 314 310 300 294 280 276 272 265 262 257 252 249 249 249 246 251 252 248 248 254 255 253 255 253
290 292 296 303 308 310 314 313 309 308 307 311 312 310 311 312 313 313 312 315 316 316 315 311 306 304 301 294 289 280 279 276 271 265 257 255 252 252 253 253 253 252 252 255 258 256 254 253 250
288 288 287 291 298 302 305 308 305 304 307 308 309 308 306 308 308 309 308 308 308 308 306 302 300 297 294 290 282 281 280 279 278 274 266 263 259 257 259 254 250 252 257 257 258 254 252 249 251
287 287 286 288 293 297 299 304 301 301 303 306 309 308 304 304 304 305 304 304 304 305 304 301 299 295 290 285 279 279 276 276 278 278 272 267 264 261 261 254 255 258 260 258 258 258 256 252 254
284 287 291 289 291 291 292 298 298 298 299 304 307 306 303 300 301 302 301 302 303 303 303 299 297 294 290 285 278 275 275 275 276 279 275 268 263 263 266 261 260 260 260 261 261 261 259 258 258
280 283 289 289 289 288 290 294 298 296 297 300 303 303 301 298 298 301 301 300 299 299 300 297 297 292 288 284 279 275 274 272 273 276 276 272 267 266 265 263 265 264 262 260 258 261 260 260 263
278 280 284 286 289 288 288 290 294 296 296 297 299 300 299 299 299 300 300 298 296 295 296 296 294 292 287 283 280 276 274 273 274 274 274 273 270 267 265 265 269 270 266 265 263 262 260 262 263
278 279 283 285 286 285 285 286 291 291 292 294 297 296 295 295 297 299 299 297 295 293 293 294 293 289 287 284 279 276 275 275 275 275 273 271 270 271 270 269 272 273 272 270 269 266 264 266 264
276 277 277 280 282 284 284 285 287 287 291 291 292 291 291 290 291 294 296 295 294 293 293 292 291 289 286 284 281 279 280 279 277 276 273 272 270 268 268 270 272 272 272 273 272 271 270 269 268
274 275 276 277 279 281 282 285 284 284 288 291 290 290 289 288 290 293 293 293 292 292 291 290 287 286 284 284 283 283 282 282 279 277 275 272 270 268 270 270 270 271 271 271 272 273 273 271 271
267 272 274 276 280 283 285 284 287 287 287 287 288 289 288 288 292 294 293 292 292 292 291 289 286 282 282 283 284 285 283 282 280 277 276 273 270 270 272 270 271 272 273 272 271 274 276 276 274
266 270 273 273 276 279 282 282 287 288 286 285 287 287 287 288 290 292 292 292 293 292 290 288 286 284 285 287 286 285 284 283 280 278 277 275 271 272 272 272 272 273 274 274 275 276 278 279 278
267 267 272 273 274 276 279 283 286 284 285 284 286 287 288 289 289 290 292 292 292 291 290 287 286 285 286 287 287 287 287 283 280 278 276 274 271 271 272 272 273 274 276 278 278 280 281 279 278
Height
5888 5887 5887 5887 5887 5887 5885 5885 5884 5883 5882 5882 5881 5881 5881 5881 5881 5883 5880 5878 5878 5878 5877 5878 5877 5877 5877 5878 5878 5878 5878 5878 5878 5878 5878 5878 5878 5878 5878 5878 5879 5880 5880 5881 5881 5881 5882 5882 5883
5887 5887 5887 5887 5886 5885 5885 5884 5883 5882 5882 5881 5880 5880 5880 5880 5879 5879 5878 5877 5877 5876 5876 5876 5876 5876 5876 5876 5876 5876 5876 5876 5876 5876 5876 5876 5876 5876 5876 5877 5878 5878 5879 5880 5880 5881 5881 5882 5882
5887 5887 5887 5886 5885 5885 5884 5883 5882 5881 5881 5880 5880 5879 5879 5879 5878 5877 5877 5876 5876 5875 5875 5875 5875 5875 5875 5875 5875 5875 5875 5875 5875 5875 5874 5874 5875 5875 5875 5876 5877 5877 5878 5879 5879 5880 5880 5880 5881
5887 5887 5887 5886 5884 5884 5883 5882 5881 5881 5880 5880 5879 5878 5878 5877 5876 5876 5875 5875 5874 5874 5873 5873 5873 5873 5873 5873 5873 5873 5873 5873 5873 5873 5873 5873 5873 5873 5874 5874 5875 5876 5877 5877 5878 5878 5879 5879 5880
5887 5887 5886 5885 5884 5884 5883 5882 5881 5880 5880 5879 5878 5877 5877 5876 5875 5874 5874 5873 5873 5872 5872 5872 5871 5871 5871 5871 5871 5871 5871 5871 5871 5871 5871 5871 5872 5872 5872 5873 5873 5874 5875 5876 5877 5877 5878 5878 5879
5887 5886 5886 5884 5884 5883 5882 5881 5881 5880 5879 5878 5877 5877 5876 5875 5874 5874 5873 5872 5871 5871 5870 5870 5870 5870 5869 5869 5869 5870 5870 5870 5870 5869 5870 5870 5870 5871 5871 5872 5872 5873 5874 5875 5875 5875 5876 5876 5877
5887 5886 5885 5884 5883 5883 5882 5881 5880 5879 5878 5878 5877 5876 5875 5874 5873 5873 5872 5871 5870 5870 5869 5869 5869 5868 5868 5868 5867 5868 5868 5868 5868 5868 5868 5869 5869 5869 5870 5871 5871 5872 5872 5873 5873 5873 5874 5875 5875
5886 5886 5884 5884 5883 5883 5882 5880 5880 5879 5878 5877 5876 5875 5874 5873 5872 5872 5871 5870 5869 5869 5868 5868 5867 5867 5866 5866 5866 5866 5866 5866 5866 5866 5867 5867 5868 5868 5868 5869 5870 5870 5871 5871 5871 5872 5872 5873 5873
5885 5886 5884 5883 5883 5882 5881 5880 5879 5878 5877 5876 5875 5874 5874 5872 5872 5871 5870 5869 5868 5868 5867 5866 5866 5865 5865 5865 5864 5864 5864 5865 5865 5865 5865 5866 5866 5866 5867 5868 5868 5869 5869 5869 5870 5870 5871 5871 5872
5885 5885 5884 5883 5882 5881 5880 5879 5878 5878 5877 5876 5875 5874 5873 5872 5871 5870 5869 5868 5868 5867 5866 5865 5865 5864 5864 5863 5863 5863 5863 5863 5863 5863 5863 5864 5864 5864 5865 5866 5866 5867 5867 5868 5868 5869 5869 5869 5870
5884 5884 5883 5882 5881 5880 5879 5879 5878 5877 5876 5875 5874 5873 5872 5871 5871 5870 5869 5868 5867 5866 5865 5864 5863 5863 5862 5862 5861 5861 5861 5861 5862 5862 5862 5862 5863 5863 5863 5864 5865 5865 5865 5866 5866 5867 5867 5867 5868
5884 5883 5882 5881 5880 5880 5879 5878 5877 5876 5876 5875 5873 5873 5872 5871 5870 5869 5868 5867 5866 5865 5864 5863 5862 5862 5861 5861 5860 5860 5860 5860 5860 5860 5861 5861 5861 5862 5862 5862 5863 5863 5863 5864 5864 5865 5865 5865 5865
5883 5882 5882 5881 5880 5879 5878 5877 5876 5876 5875 5874 5873 5872 5872 5871 5870 5869 5868 5867 5866 5864 5863 5862 5862 5861 5860 5860 5859 5859 5859 5859 5859 5859 5859 5860 5860 5860 5860 5860 5861 5861 5862 5862 5863 5863 5863 5863 5863
5883 5882 5881 5880 5879 5878 5878 5877 5876 5875 5874 5874 5873 5872 5871 5871 5870 5869 5868 5867 5866 5864 5863 5862 5861 5861 5860 5859 5858 5858 5858 5858 5858 5858 5858 5858 5858 5858 5859 5859 5859 5860 5860 5860 5861 5861 5861 5861 5861
5882 5881 5881 5879 5878 5878 5877 5877 5875 5875 5874 5873 5873 5872 5871 5870 5870 5869 5868 5867 5865 5864 5863 5862 5861 5860 5859 5858 5858 5857 5857 5857 5857 5857 5857 5857 5857 5857 5857 5857 5858 5858 5858 5858 5859 5859 5859 5859 5860
5881 5881 5880 5879 5878 5877 5878 5877 5875 5874 5873 5873 5872 5872 5871 5870 5869 5868 5867 5866 5865 5864 5863 5862 5861 5860 5859 5858 5857 5857 5856 5856 5856 5856 5856 5856 5855 5855 5856 5856 5856 5856 5856 5857 5857 5857 5858 5858 5857
5880 5880 5879 5879 5877 5876 5876 5876 5875 5873 5873 5872 5872 5871 5871 5870 5869 5868 5867 5866 5865 5863 5862 5861 5860 5859 5858 5857 5856 5856 5855 5855 5855 5855 5855 5854 5854 5854 5854 5854 5854 5855 5855 5855 5855 5855 5855 5855 5855
5880 5879 5878 5877 5876 5876 5875 5874 5874 5873 5872 5872 5871 5870 5870 5869 5868 5867 5866 5865 5864 5862 5861 5860 5859 5858 5857 5856 5855 5855 5855 5854 5854 5853 5853 5853 5853 5853 5853 5853 5853 5853 5853 5853 5853 5853 5853 5853 5853
5878 5877 5877 5877 5875 5875 5874 5874 5873 5872 5872 5871 5870 5869 5869 5868 5867 5866 5865 5864 5863 5862 5860 5859 5858 5857 5856 5855 5854 5854 5854 5853 5852 5852 5852 5852 5852 5852 5852 5851 5851 5851 5851 5852 5851 5851 5851 5851 5851
5876 5876 5876 5875 5874 5874 5873 5873 5872 5871 5871 5870 5869 5868 5868 5867 5866 5865 5864 5863 5861 5860 5859 5858 5856 5855 5855 5854 5853 5852 5852 5851 5851 5851 5851 5850 5850 5850 5850 5850 5850 5850 5850 5850 5849 5849 5848 5848 5848
5875 5875 5874 5874 5873 5873 5872 5872 5871 5870 5869 5869 5868 5867 5866 5865 5864 5863 5862 5861 5860 5859 5857 5856 5855 5854 5853 5852 5851 5851 5850 5850 5849 5849 5849 5848 5848 5848 5848 5848 5848 5847 5847 5847 5847 5847 5846 5846 5846
5873 5873 5873 5872 5872 5872 5872 5871 5870 5869 5868 5867 5866 5865 5864 5863 5862 5861 5860 5859 5858 5857 5856 5854 5853 5852 5851 5850 5850 5849 5849 5848 5848 5847 5847 5846 5846 5846 5845 5845 5845 5845 5845 5844 5844 5844 5844 5844 5844
5871 5871 5871 5870 5870 5870 5870 5869 5870 5867 5866 5865 5864 5863 5862 5861 5860 5859 5858 5857 5856 5855 5854 5853 5851 5850 5849 5848 5848 5847 5847 5846 5846 5845 5845 5844 5843 5843 5843 5842 5842 5842 5842 5842 5841 5841 5841 5841 5841
5869 5869 5869 5868 5868 5869 5868 5868 5867 5865 5864 5863 5862 5861 5860 5859 5858 5857 5856 5855 5854 5853 5852 5851 5850 5848 5847 5846 5846 5845 5845 5844 5843 5843 5842 5842 5841 5841 5840 5840 5839 5839 5839 5838 5838 5838 5838 5838 5838
5867 5867 5868 5867 5867 5867 5866 5865 5866 5863 5862 5861 5860 5859 5858 5857 5856 5855 5854 5853 5852 5851 5849 5848 5847 5846 5845 5844 5843 5843 5842 5841 5841 5840 5839 5839 5838 5838 5837 5837 5837 5836 5835 5835 5835 5834 5834 5834 5834
5864 5865 5866 5865 5865 5864 5863 5863 5863 5861 5859 5858 5857 5856 5855 5854 5853 5852 5851 5850 5849 5848 5847 5846 5844 5843 5842 5842 5841 5840 5839 5839 5838 5837 5836 5836 5835 5835 5834 5834 5833 5833 5832 5831 5831 5831 5830 5830 5830
5861 5861 5862 5862 5861 5861 5861 5860 5859 5858 5856 5855 5854 5853 5852 5851 5850 5849 5848 5847 5846 5845 5844 5842 5841 5840 5840 5839 5838 5837 5836 5835 5835 5834 5833 5832 5832 5831 5831 5830 5830 5829 5828 5828 5827 5827 5826 5826 5825
5858 5858 5858 5858 5858 5858 5858 5857 5857 5855 5853 5852 5851 5850 5849 5848 5847 5846 5844 5843 5842 5841 5840 5839 5838 5837 5836 5836 5835 5834 5833 5832 5831 5830 5829 5828 5828 5827 5827 5826 5825 5825 5824 5823 5823 5822 5821 5821 5820
5855 5855 5854 5854 5854 5854 5854 5856 5853 5851 5850 5849 5848 5847 5846 5845 5844 5842 5841 5840 5839 5837 5836 5836 5835 5834 5833 5832 5831 5830 5829 5828 5827 5826 5825 5824 5823 5823 5822 5822 5821 5820 5820 5819 5818 5817 5817 5816 5815
5850 5850 5850 5851 5850 5850 5850 5853 5849 5847 5846 5845 5844 5843 5842 5841 5840 5839 5838 5836 5835 5834 5833 5832 5831 5830 5829 5828 5827 5826 5825 5823 5822 5821 5821 5820 5819 5818 5818 5817 5816 5816 5815 5815 5814 5813 5812 5810 5809